User: anonymous   Login
Location: Unspecified
(0.0000°N, 0.0000°E)
Time: 09:22:04
(UTC+00:00)
Language:

M3MSAT - Orbit

View from above orbital plane
View from above orbital plane
View from above satellite
View from above satellite

Ground track
Ground track

The orbit data is extracted from the following two-line orbital elements,

1 41605U 16040G   21340.86238617  .00001223  00000-0  55837-4 0  9998
2 41605  97.2392  25.5723 0013507 106.6140 253.6581 15.22339862303027
Epoch (UTC): 06 December 2021 20:41:50
Eccentricity: 0.0013507
inclination: 97.2392°
perigee height: 489 km
apogee height: 508 km
right ascension of ascending node: 25.5723°
argument of perigee: 106.6140°
revolutions per day: 15.22339862
mean anomaly at epoch: 253.6581°
orbit number at epoch: 30302

The dashed part of the orbit path shows where the satellite is in the earth's shadow,  

DLR